[[{"header":{"parameterUnit":"m.s-1","parameterCategory":1,"la1":30.2991,"la2":30.254,"lo1":-89.0895,"lo2":-89.0444,"dy":0.0017,"dx":0.0017,"nx":28,"ny":28,"refTime":"2024-12-09T09:00:00:Z","depth":0,"parameterNumber":2,"parameterNumberName":"U-component_of_WINDS"},"data":[0,0,0,0,0,0,0,0,0,0,0,0,0,0,0,0,0,0,0,0,0,0,0,0,0,0,0,0,0,0,0,0,0,0,0,0,0,0,0,0,0,0,0,0,0,0,0,0,0,0,0,0,0,0,0,0,0,0,0.8198,0.8198,0,0.814,0.8139,0.8138,0.8059,0.8058,0.8057,0.8056,0.7996,0.7996,0.7995,0,0,0,0,0,0,0,0,0,0,0,0,0,0.8243,0.8242,0.8198,0.8198,0.8197,0.814,0.8139,0.8138,0.806,0.8058,0.8056,0.8055,0.7996,0.7996,0.7995,0,0,0,0,0,0,0,0,0,0,0,0,0,0.8208,0.8242,0.8198,0.8151,0.8146,0.814,0.8139,0.8138,0.806,0.8058,0.8056,0.8054,0.7996,0.7996,0.7995,0.8031,0,0,0.7994,0.7993,0,0,0,0,0,0,0,0,0.821,0.8206,0.8158,0.8154,0.8149,0.8105,0.8133,0.8102,0.806,0.8093,0.8055,0.8053,0.8034,0.803,0.8023,0.8029,0.8026,0.7993,0.7993,0.7993,0.7993,0,0,0,0,0,0,0,0.8212,0.8208,0.8175,0.8158,0.8152,0.8132,0.8125,0.8127,0.8075,0.809,0.8084,0.8078,0.8031,0.8024,0.8021,0.8025,0.7993,0.7993,0.7993,0.7992,0.8058,0.806,0,0,0,0,0,0,0.8222,0.8211,0.8177,0.8173,0.8175,0.8133,0.8125,0.8121,0.8075,0.8066,0.808,0.8074,0.8026,0.8022,0.8019,0.8059,0.7993,0.7992,0.7992,0.8056,0.8058,0.8061,0,0,0,0,0,0,0.8223,0.8219,0.8179,0.819,0.8184,0.8135,0.813,0.8121,0.8114,0.8067,0.8058,0.8082,0.8024,0.802,0.8029,0.8056,0.7992,0.7992,0.8053,0.8057,0.8059,0.8139,0,0,0,0,0,0,0.8225,0.822,0.8234,0.8191,0.8184,0.819,0.8132,0.8121,0.8113,0.8106,0.8067,0.8059,0.8022,0.803,0.8029,0.8054,0.7991,0.8051,0.8055,0.8058,0.8134,0.8145,0.8154,0,0,0,0,0,0.8226,0.8258,0.8235,0.8231,0.8199,0.8192,0.8188,0.8145,0.8116,0.8129,0.8099,0.806,0.8053,0.8032,0.8029,0.8055,0.8049,0.8054,0.8058,0.813,0.8143,0.8154,0,0,0,0,0,0,0.8305,0.8252,0.8225,0.8244,0.8223,0.8179,0.8194,0.816,0.8147,0.8141,0.8088,0.808,0.8096,0.8076,0.8053,0.8088,0.8045,0.805,0.8101,0.8113,0.8122,0.8127,0.7991,0,0,0,0,0,0.8324,0.8323,0.8277,0.8298,0.8289,0.8244,0.8239,0.8208,0.8184,0.8175,0.8145,0.8124,0.8117,0.8113,0.8104,0.8131,0.8121,0.8147,0.8157,0.8165,0.817,0.8183,0.8194,0.8076,0.8076,0.8076,0,0,0.8365,0.8335,0.8338,0.8313,0.8293,0.8294,0.8237,0.8239,0.8239,0.8175,0.8182,0.816,0.8133,0.8151,0.8158,0.8135,0.8201,0.8171,0.8178,0.8178,0.8189,0.82,0.821,0.8079,0.8078,0.8078,0,0,0.8438,0.8416,0.8431,0.8413,0.8384,0.8353,0.8357,0.8318,0.8301,0.8307,0.826,0.8259,0.8247,0.823,0.822,0.8288,0.8252,0.8286,0.8338,0.8352,0.8361,0.8369,0.8394,0.8404,0.8291,0.8291,0.8291,0,0.8492,0.849,0.8444,0.845,0.844,0.8383,0.8399,0.8383,0.8352,0.8348,0.8322,0.8308,0.8285,0.8299,0.8316,0.8309,0.8312,0.8291,0.8364,0.8371,0.8378,0.8401,0.8411,0.8295,0.8295,0.8295,0.8294,0,0.8558,0.8558,0.8574,0.8547,0.8539,0.855,0.8505,0.8503,0.8473,0.8445,0.8453,0.8424,0.8408,0.8409,0.8379,0.8419,0.8406,0.8373,0.8329,0.8395,0.8416,0.8424,0.8302,0.83,0.8299,0.8298,0,0,0.868,0.8627,0.8633,0.862,0.8584,0.8583,0.8592,0.8576,0.8576,0.8557,0.8563,0.8555,0.8525,0.8513,0.8481,0.8493,0.855,0.8458,0.8457,0.8477,0.8593,0.8619,0.863,0.8526,0.8527,0.8528,0.8595,0,0.8747,0.8758,0.8717,0.8739,0.8739,0.8684,0.8692,0.8671,0.8645,0.8641,0.8613,0.8609,0.8568,0.8561,0.857,0.8541,0.8573,0.8536,0.8532,0.8532,0.8541,0.864,0.8667,0.8732,0.8603,0.8605,0.8606,0,0.8827,0.8813,0.8835,0.8798,0.8797,0.8804,0.8787,0.8784,0.8759,0.874,0.8728,0.869,0.8696,0.8654,0.8662,0.8638,0.8634,0.8619,0.8621,0.8619,0.8573,0.8643,0.8751,0.8762,0.8618,0.8617,0.8616,0,0.8914,0.8901,0.8912,0.8903,0.886,0.8867,0.8849,0.8823,0.8816,0.8802,0.8797,0.8783,0.8776,0.8767,0.8727,0.87,0.874,0.8694,0.8725,0.8726,0.8736,0.8736,0.8847,0.8732,0.8732,0.8732,0.8732,0,0.8994,0.901,0.8951,0.8959,0.8975,0.8928,0.8945,0.8922,0.8899,0.8902,0.8853,0.8857,0.8804,0.8801,0.877,0.8782,0.8779,0.8764,0.8755,0.8768,0.877,0.8765,0.876,0.8735,0.8734,0.8734,0.8733,0,0.9095,0.9056,0.9065,0.9024,0.9014,0.9028,0.8993,0.8999,0.897,0.8974,0.8972,0.8928,0.8922,0.8882,0.8867,0.8846,0.887,0.8852,0.8879,0.8873,0.8906,0.8904,0.9018,0.9031,0.8908,0.891,0.8911,0,0.9148,0.9159,0.912,0.9118,0.9103,0.9101,0.9094,0.9048,0.9043,0.9017,0.9026,0.9016,0.9006,0.9,0.8967,0.8956,0.8938,0.8979,0.8936,0.8949,0.894,0.894,0.8941,0.8988,0.899,0.8991,0.8992,0,0.9248,0.9229,0.9221,0.9208,0.9201,0.9188,0.9172,0.9174,0.9123,0.912,0.9114,0.9107,0.9092,0.9084,0.9067,0.9049,0.9013,0.9006,0.9012,0.9026,0.9041,0.9034,0.8904,0.9003,0.9002,0.9001,0.9001,0.9,0.9327,0.9335,0.9309,0.9302,0.9286,0.9272,0.9275,0.9248,0.9242,0.9227,0.92,0.9198,0.9174,0.9147,0.9132,0.9131,0.9109,0.9118,0.9121,0.9124,0.9131,0.9041,0.9127,0.9127,0.9126,0.9126,0.9126,0,0.9425,0.9406,0.94,0.938,0.9375,0.9341,0.9322,0.9321,0.932,0.93,0.9292,0.9285,0.9277,0.9244,0.9232,0.9237,0.922,0.9236,0.9235,0.9232,0.9151,0.9147,0.925,0.925,0.925,0.925,0.925,0.925,0.9475,0.9487,0.9465,0.9468,0.9448,0.9447,0.9439,0.9426,0.941,0.9405,0.9399,0.9377,0.9352,0.9338,0.9329,0.9319,0.9318,0.9339,0.9324,0.9249,0.9237,0.9226,0.9222,0.9339,0.9339,0.9405,0.9406,0.9406]},{"header":{"parameterUnit":"m.s-1","parameterCategory":1,"la1":30.2991,"la2":30.254,"lo1":-89.0895,"lo2":-89.0444,"dy":0.0017,"dx":0.0017,"nx":28,"ny":28,"refTime":"2024-12-09T09:00:00:Z","depth":0,"parameterNumber":3,"parameterNumberName":"V-component_of_WINDS"},"data":[0,0,0,0,0,0,0,0,0,0,0,0,0,0,0,0,0,0,0,0,0,0,0,0,0,0,0,0,0,0,0,0,0,0,0,0,0,0,0,0,0,0,0,0,0,0,0,0,0,0,0,0,0,0,0,0,0,0,6.9918,6.9919,0,6.996,6.9961,6.9961,6.9933,6.9931,6.993,6.9929,6.9966,6.9968,6.997,0,0,0,0,0,0,0,0,0,0,0,0,0,6.9807,6.9809,6.9918,6.9919,6.9919,6.996,6.9961,6.9961,6.9933,6.9931,6.993,6.9928,6.9965,6.9968,6.9971,0,0,0,0,0,0,0,0,0,0,0,0,0,6.9853,6.981,6.9918,6.991,6.991,6.996,6.9961,6.9962,6.9933,6.9931,6.9929,6.9927,6.9964,6.9968,6.9971,7.003,0,0,6.9981,6.9982,0,0,0,0,0,0,0,0,6.985,6.9857,6.9911,6.9911,6.9911,6.9939,6.9935,6.9984,6.9934,6.9924,6.9929,6.9927,6.9958,6.9962,6.9974,7.0031,7.0033,6.9981,6.9983,6.9985,6.9986,0,0,0,0,0,0,0,6.9847,6.9855,6.9935,6.9912,6.9911,6.9902,6.9907,6.9944,6.9951,6.9925,6.9923,6.9929,6.9958,6.9971,6.9975,7.0034,6.9981,6.9984,6.9986,6.9987,7.0142,7.0144,0,0,0,0,0,0,6.9846,6.9852,6.9933,6.9936,6.9875,6.9906,6.9911,6.9932,6.9951,6.9952,6.993,6.9927,6.9966,6.9971,6.9976,7.0047,6.9985,6.9988,6.999,7.014,7.0143,7.0145,0,0,0,0,0,0,6.9843,6.9853,6.9932,6.9894,6.9903,6.991,6.9934,6.9934,6.9947,6.9955,6.9955,6.9943,6.9965,6.9971,7.0017,7.0048,6.9989,6.9992,7.0138,7.0141,7.0144,7.019,0,0,0,0,0,0,6.984,6.9852,6.9876,6.9895,6.9905,6.9974,6.9936,6.9936,6.9953,6.995,6.9967,6.9968,6.9964,7.0012,7.002,7.0052,6.9995,7.0135,7.0139,7.0143,7.0186,7.0194,7.0202,0,0,0,0,0,6.9836,6.9886,6.9878,6.9887,6.9936,6.9976,6.9982,6.9978,6.9956,6.9979,6.9984,6.9967,7.0043,7.0017,7.0026,7.0059,7.0133,7.0138,7.0143,7.0182,7.0192,7.0201,0,0,0,0,0,0,6.9868,6.9888,6.9879,6.9936,6.9955,6.9971,7.0,6.9989,7.0013,7.0008,7.0001,7.0005,7.0053,7.006,7.0031,7.0117,7.0084,7.0091,7.0111,7.0121,7.0129,7.0127,6.9997,0,0,0,0,0,6.9882,6.9916,6.993,6.9979,6.9989,6.9993,7.0011,7.0006,7.0025,7.0032,7.004,7.0057,7.0085,7.0103,7.0129,7.0186,7.0189,7.0212,7.022,7.0227,7.0233,7.0265,7.0276,7.0161,7.0161,7.0161,0,0,6.9911,6.9926,6.9947,6.9986,7.0,7.0033,7.0,7.0036,7.006,7.0036,7.0082,7.0088,7.0106,7.0159,7.0182,7.0166,7.0266,7.0233,7.0238,7.0241,7.0271,7.0282,7.0292,7.0164,7.0164,7.0163,0,0,6.9981,6.9995,7.0039,7.0054,7.0077,7.0079,7.0089,7.0108,7.0112,7.0157,7.0141,7.0168,7.0216,7.023,7.0243,7.0319,7.0304,7.0327,7.0369,7.04,7.041,7.0418,7.0446,7.0456,7.0333,7.0333,7.0333,0,7.0013,7.0065,7.0062,7.01,7.0118,7.01,7.0143,7.0157,7.0186,7.0198,7.0179,7.024,7.025,7.0307,7.0325,7.0336,7.0347,7.0326,7.0409,7.0417,7.0424,7.0451,7.0462,7.0336,7.0336,7.0335,7.0335,0,7.0104,7.014,7.0172,7.0204,7.0224,7.0265,7.0266,7.0287,7.0281,7.0285,7.0331,7.0344,7.0372,7.0385,7.0378,7.044,7.043,7.041,7.0377,7.0438,7.0463,7.0473,7.034,7.0339,7.0338,7.0338,0,0,7.0196,7.0226,7.0238,7.0253,7.0276,7.0303,7.0342,7.0372,7.0391,7.0411,7.0444,7.0485,7.0468,7.0483,7.0477,7.0504,7.0565,7.0481,7.0482,7.0498,7.0635,7.0651,7.0663,7.0555,7.0557,7.0558,7.0634,0,7.0268,7.034,7.0338,7.0404,7.0437,7.0421,7.0455,7.0472,7.0477,7.0504,7.0508,7.0538,7.0512,7.0521,7.0547,7.0552,7.0593,7.0546,7.0585,7.0586,7.0583,7.0676,7.0693,7.0764,7.0644,7.0646,7.0647,0,7.0363,7.039,7.046,7.048,7.0494,7.0525,7.0553,7.0579,7.0598,7.0599,7.0617,7.0607,7.0646,7.0611,7.0664,7.0633,7.0648,7.0652,7.0655,7.066,7.0622,7.0685,7.0787,7.0798,7.0662,7.0661,7.066,0,7.0425,7.0477,7.0527,7.0539,7.0564,7.0586,7.0597,7.0614,7.0633,7.0656,7.0668,7.0695,7.071,7.073,7.0727,7.0702,7.0781,7.0746,7.0783,7.0783,7.0802,7.0801,7.0909,7.0809,7.0809,7.0808,7.0808,0,7.0507,7.0551,7.0556,7.0586,7.0634,7.0631,7.0678,7.0686,7.0701,7.0732,7.0717,7.0746,7.074,7.0768,7.0765,7.081,7.0816,7.0818,7.0817,7.082,7.082,7.0831,7.0827,7.0811,7.0811,7.081,7.081,0,7.0585,7.059,7.0643,7.0662,7.0668,7.0703,7.0719,7.0747,7.075,7.0789,7.0798,7.0803,7.0835,7.0834,7.0869,7.0868,7.0923,7.0915,7.0918,7.0917,7.0955,7.0952,7.1075,7.1092,7.0979,7.098,7.0981,0,7.0639,7.0672,7.0696,7.0717,7.073,7.0763,7.0783,7.078,7.0801,7.0826,7.0851,7.0882,7.0907,7.0959,7.0965,7.0992,7.0986,7.1027,7.099,7.0993,7.0988,7.0987,7.0991,7.1035,7.1036,7.1037,7.1038,0,7.0733,7.0734,7.0765,7.0796,7.0821,7.0845,7.0867,7.0884,7.0883,7.0907,7.0941,7.0961,7.0999,7.103,7.1057,7.1065,7.1052,7.105,7.106,7.1065,7.1066,7.1067,7.094,7.1047,7.1046,7.1046,7.1045,7.1045,7.0801,7.0832,7.0854,7.0888,7.0905,7.0926,7.0954,7.0962,7.0992,7.1024,7.1019,7.1058,7.1075,7.111,7.1121,7.115,7.1135,7.115,7.1154,7.1158,7.1163,7.106,7.1154,7.1154,7.1154,7.1154,7.1154,0,7.0897,7.0911,7.0943,7.0976,7.1003,7.0989,7.1013,7.1036,7.1071,7.1089,7.1115,7.1154,7.1185,7.1193,7.1222,7.1244,7.1238,7.1251,7.1251,7.1253,7.1174,7.1163,7.1256,7.1256,7.1256,7.1255,7.1255,7.1255,7.095,7.1001,7.1005,7.1063,7.1075,7.1115,7.113,7.1149,7.1164,7.121,7.1236,7.1242,7.1257,7.1287,7.1314,7.1315,7.1327,7.1343,7.1342,7.1269,7.1258,7.1249,7.1239,7.1345,7.1346,7.1419,7.142,7.1421]}]]